Date String (YYYY-MM-DD hh:mm:ss) UTC,Instrument flags,absolute air pressure of the measurement (hPa),sample flow rate (lpm),inlet stack bypass flow (lpm),air temperature of the measurement (°C),ambient temperature measured by the external sensor (°C),aerosol sample conditioner tube jacket temperature (°C),OPC LED temperature (°C),internal box temperature (°C),relative humidity of the measurement (%),span deviation,mass concentration of particles derived from Lorenz-Mie calculation of OPC scattering (μg/m³),mass concentration of particles derived from Lorenz-Mie calculation of OPC scattering (μg/m³),mass concentration of particles derived from Lorenz-Mie calculation of OPC scattering (μg/m³)
DateTimeUTC,F1_M11,P_M11,Q1_M11,Q2_M11,T1_M11,T2_M11,T3_M11,T4_M11,T5_M11,U1_M11,ZSPAN_M11,X0_M11,X2_M11,X1_M11
2023-09-01 23:00:00,SystemResetWarning,0829.7,5.01,000.00,027.5,024.5,000.0,035.7,028.9,20.6,0000.0,0014.00,0004.21,0003.07
2023-09-01 23:01:00,SystemResetWarning,0829.7,5.01,000.00,027.5,024.8,000.0,035.7,029.0,20.0,0000.0,0014.48,0004.21,0003.05
2023-09-01 23:02:00,SystemResetWarning,0829.7,5.00,000.00,027.5,025.3,000.0,035.8,029.1,20.0,0000.0,0015.18,0004.16,0003.01
2023-09-01 23:03:00,SystemResetWarning,0829.7,5.00,000.00,027.6,025.7,000.0,035.8,029.3,20.1,0000.0,0015.48,0004.17,0003.00
2023-09-01 23:04:00,SystemResetWarning,0829.7,5.00,000.00,027.7,026.2,000.0,035.8,029.4,20.4,0000.0,0015.37,0004.12,0002.96
2023-09-01 23:05:00,SystemResetWarning,0829.7,5.00,000.00,027.7,026.5,000.0,035.9,029.5,20.2,0000.0,0015.30,0004.08,0002.93
2023-09-01 23:06:00,SystemResetWarning,0829.7,4.99,000.00,027.8,025.9,000.0,035.8,029.3,19.9,0000.0,0015.25,0004.06,0002.91
2023-09-01 23:07:00,SystemResetWarning,0829.7,4.99,000.00,027.6,024.7,000.0,035.8,028.8,20.0,0000.0,0015.49,0004.03,0002.89
2023-09-01 23:08:00,SystemResetWarning,0829.7,5.01,000.00,027.6,024.6,000.0,035.7,028.9,20.3,0000.0,0014.49,0004.02,0002.90
2023-09-01 23:09:00,SystemResetWarning,0829.7,5.01,000.00,027.5,025.0,000.0,035.8,029.0,20.3,0000.0,0013.40,0004.03,0002.89
2023-09-01 23:10:00,SystemResetWarning,0829.7,5.00,000.00,027.6,025.4,000.0,035.8,029.1,20.4,0000.0,0012.23,0004.03,0002.90
2023-09-01 23:11:00,SystemResetWarning,0829.7,5.00,000.00,027.6,025.8,000.0,035.8,029.3,21.2,0000.0,0012.43,0004.01,0002.89
2023-09-01 23:12:00,SystemResetWarning,0829.7,5.00,000.00,027.7,026.2,000.0,035.8,029.4,20.7,0000.0,0012.60,0004.00,0002.88
2023-09-01 23:13:00,SystemResetWarning,0829.7,4.99,000.00,027.7,025.5,000.0,035.8,029.2,19.8,0000.0,0011.74,0004.05,0002.90
2023-09-01 23:14:00,SystemResetWarning,0829.7,5.00,000.00,027.6,024.3,000.0,035.8,028.8,20.2,0000.0,0011.35,0004.07,0002.90
2023-09-01 23:15:00,SystemResetWarning,0829.7,5.01,000.00,027.5,024.5,000.0,035.7,028.8,19.9,0000.0,0011.72,0004.15,0002.92
2023-09-01 23:16:00,SystemResetWarning,0829.7,5.00,000.00,027.5,024.8,000.0,035.7,028.9,20.1,0000.0,0012.08,0004.19,0002.91
2023-09-01 23:17:00,SystemResetWarning,0829.7,5.01,000.00,027.5,025.3,000.0,035.8,029.1,20.2,0000.0,0011.74,0004.19,0002.92
2023-09-01 23:18:00,SystemResetWarning,0829.7,5.00,000.00,027.6,025.7,000.0,035.8,029.3,20.4,0000.0,0011.26,0004.19,0002.94
2023-09-01 23:19:00,SystemResetWarning,0829.7,5.00,000.00,027.7,026.2,000.0,035.8,029.4,20.7,0000.0,0011.82,0004.26,0002.94
2023-09-01 23:20:00,SystemResetWarning,0829.7,4.99,000.00,027.7,026.2,000.0,035.8,029.4,21.1,0000.0,0012.56,0004.30,0002.94
2023-09-01 23:21:00,SystemResetWarning,0829.7,5.00,000.00,027.6,024.9,000.0,035.8,028.9,21.2,0000.0,0013.13,0004.37,0002.96
2023-09-01 23:22:00,SystemResetWarning,0829.7,5.01,000.00,027.5,024.4,000.0,035.7,028.8,21.3,0000.0,0013.30,0004.43,0002.98
2023-09-01 23:23:00,SystemResetWarning,0829.7,5.02,000.00,027.5,024.7,000.0,035.7,028.9,20.8,0000.0,0013.54,0004.46,0003.00
2023-09-01 23:24:00,SystemResetWarning,0829.7,4.99,000.00,027.5,025.0,000.0,035.7,029.0,20.5,0000.0,0013.90,0004.44,0003.00
2023-09-01 23:25:00,SystemResetWarning,0829.7,5.00,000.00,027.5,025.5,000.0,035.8,029.2,20.6,0000.0,0014.26,0004.43,0002.99
2023-09-01 23:26:00,SystemResetWarning,0829.7,5.00,000.00,027.6,025.9,000.0,035.8,029.3,20.7,0000.0,0014.24,0004.39,0002.97
2023-09-01 23:27:00,SystemResetWarning,0829.7,5.01,000.00,027.7,026.3,000.0,035.8,029.5,21.0,0000.0,0014.22,0004.35,0002.95
2023-09-01 23:28:00,SystemResetWarning,0829.7,5.00,000.00,027.7,026.3,000.0,035.8,029.4,21.3,0000.0,0015.05,0004.32,0002.92
2023-09-01 23:29:00,SystemResetWarning,0829.7,4.99,000.00,027.6,025.0,000.0,035.8,028.9,21.4,0000.0,0015.32,0004.32,0002.90
2023-09-01 23:30:00,SystemResetWarning,0829.6,5.01,000.00,027.5,024.4,000.0,035.7,028.8,21.7,0000.0,0015.72,0004.18,0002.85
2023-09-01 23:31:00,SystemResetWarning,0829.6,5.01,000.00,027.5,024.7,000.0,035.7,028.9,21.9,0000.0,0015.48,0004.12,0002.83
2023-09-01 23:32:00,SystemResetWarning,0829.6,5.00,000.00,027.5,025.1,000.0,035.8,029.0,21.3,0000.0,0015.15,0004.09,0002.80
2023-09-01 23:33:00,SystemResetWarning,0829.7,5.00,000.00,027.6,025.6,000.0,035.8,029.2,21.2,0000.0,0015.38,0004.01,0002.75
2023-09-01 23:34:00,SystemResetWarning,0829.7,5.00,000.00,027.6,026.0,000.0,035.8,029.4,21.7,0000.0,0015.39,0003.93,0002.70
2023-09-01 23:35:00,SystemResetWarning,0829.7,5.00,000.00,027.7,026.4,000.0,035.8,029.5,21.3,0000.0,0015.00,0003.87,0002.67
2023-09-01 23:36:00,SystemResetWarning,0829.7,4.99,000.00,027.8,026.3,000.0,035.8,029.4,20.5,0000.0,0014.80,0003.78,0002.64
2023-09-01 23:37:00,SystemResetWarning,0829.6,5.00,000.00,027.7,025.1,000.0,035.8,029.0,20.9,0000.0,0014.09,0003.76,0002.64
2023-09-01 23:38:00,SystemResetWarning,0829.6,5.01,000.00,027.6,024.5,000.0,035.8,028.9,20.7,0000.0,0013.38,0003.74,0002.64
2023-09-01 23:39:00,SystemResetWarning,0829.7,5.01,000.00,027.6,024.8,000.0,035.8,029.0,20.9,0000.0,0012.59,0003.74,0002.63
2023-09-01 23:40:00,SystemResetWarning,0829.6,5.00,000.00,027.6,025.2,000.0,035.8,029.0,21.1,0000.0,0012.28,0003.71,0002.63
2023-09-01 23:41:00,SystemResetWarning,0829.7,5.00,000.00,027.6,025.7,000.0,035.8,029.2,20.8,0000.0,0011.62,0003.76,0002.64
2023-09-01 23:42:00,SystemResetWarning,0829.7,4.99,000.00,027.7,026.1,000.0,035.8,029.4,20.9,0000.0,0012.45,0003.82,0002.67
2023-09-01 23:43:00,SystemResetWarning,0829.7,5.00,000.00,027.7,026.4,000.0,035.9,029.5,21.1,0000.0,0013.03,0003.83,0002.68
2023-09-01 23:44:00,SystemResetWarning,0829.6,4.98,000.00,027.7,025.6,000.0,035.8,029.2,20.6,0000.0,0014.40,0003.92,0002.71
2023-09-01 23:45:00,SystemResetWarning,0829.6,5.01,000.00,027.6,024.5,000.0,035.8,028.8,21.1,0000.0,0015.33,0004.01,0002.74
2023-09-01 23:46:00,SystemResetWarning,0829.5,5.01,000.00,027.5,024.5,000.0,035.7,028.9,21.2,0000.0,0017.01,0004.09,0002.78
2023-09-01 23:47:00,SystemResetWarning,0829.6,4.99,000.00,027.5,024.9,000.0,035.8,028.9,21.0,0000.0,0017.41,0004.17,0002.82
2023-09-01 23:48:00,SystemResetWarning,0829.5,4.99,000.00,027.5,025.3,000.0,035.8,029.1,21.1,0000.0,0017.34,0004.20,0002.82
2023-09-01 23:49:00,SystemResetWarning,0829.6,5.00,000.00,027.6,025.8,000.0,035.8,029.3,20.8,0000.0,0017.46,0004.24,0002.85
2023-09-01 23:50:00,SystemResetWarning,0829.6,5.00,000.00,027.7,026.2,000.0,035.8,029.4,20.9,0000.0,0017.65,0004.27,0002.88
2023-09-01 23:51:00,SystemResetWarning,0829.6,5.01,000.00,027.8,026.5,000.0,035.9,029.5,20.2,0000.0,0017.53,0004.28,0002.90
2023-09-01 23:52:00,SystemResetWarning,0829.5,4.99,000.00,027.7,025.7,000.0,035.9,029.2,20.6,0000.0,0017.47,0004.33,0002.94
2023-09-01 23:53:00,SystemResetWarning,0829.5,4.99,000.00,027.6,024.5,000.0,035.8,028.8,21.0,0000.0,0017.18,0004.32,0002.94
2023-09-01 23:54:00,SystemResetWarning,0829.5,5.02,000.00,027.6,024.6,000.0,035.8,028.9,20.9,0000.0,0016.41,0004.28,0002.95
2023-09-01 23:55:00,SystemResetWarning,0829.5,5.00,000.00,027.6,024.9,000.0,035.8,029.0,21.2,0000.0,0014.29,0004.20,0002.95
2023-09-01 23:56:00,SystemResetWarning,0829.5,5.00,000.00,027.6,025.4,000.0,035.8,029.2,21.0,0000.0,0013.67,0004.12,0002.95
2023-09-01 23:57:00,SystemResetWarning,0829.6,5.00,000.00,027.6,025.8,000.0,035.8,029.3,21.2,0000.0,0012.10,0004.04,0002.92
2023-09-01 23:58:00,SystemResetWarning,0829.6,5.00,000.00,027.7,026.3,000.0,035.9,029.5,20.3,0000.0,0011.18,0003.98,0002.87
2023-09-01 23:59:00,SystemResetWarning,0829.6,4.99,000.00,027.8,026.1,000.0,035.9,029.4,20.1,0000.0,0010.69,0003.93,0002.86
